Regional Weather Roundup
Issued by NWS

Home | Current Version | Previous Version | Graphics & Text | Print | Product List | Glossary On
Versions: 1 2 3 4 5 6 7 8 9 10 11 12 13 14 15 16 17 18 19 20 21 22 23 24 25 26 27 28 29 30 31 32 33 34 35 36 37 38 39 40 41 42 43 44 45 46 47 48 49 50
752
ASUS44 KLIX 220910
RWRLA
LOUISIANA WEATHER ROUNDUP
NATIONAL WEATHER SERVICE NEW ORLEANS LA
300 AM CST MON DEC 22 2014

NOTE: "FAIR" INDICATES FEW OR NO CLOUDS BELOW 12,000 FEET WITH NO
      SIGNIFICANT WEATHER AND/OR OBSTRUCTIONS TO VISIBILITY.
      SKY/WX - SKY CONDITION AND SIGNIFICANT WEATHER.
      TMP - AIR TEMPERATURE.    DP   - DEWPOINT TEMPERATURE.
      RH  - RELATIVE HUMIDITY.  PRES - PRESSURE.
      HX  - HEAT INDEX.         WCI  - WIND CHILL INDEX.

*  THESE STATIONS ARE NOT NWS OR FAA STATIONS AND ARE NOT UNDER
   NWS QUALITY CONTROL.

LAZ040-048-061>063-065-066-069-221000-
SOUTHEAST LOUISIANA

CITY           SKY/WX    TMP DP  RH WIND       PRES   REMARKS
N.O. AUDUBON     N/A     59  59 100 MISG        N/A
N.O. INTL ARPT FOG       57  56  96 E6        29.88F VSB 1/2
N.O. LAKEFRONT CLOUDY    58  56  93 E9        29.89F FOG
N.O. DOWNTOWN* CLOUDY    57  54  88 E7        29.89F
SLIDELL        FOG       57  55  93 E7        29.88F VSB 1
BATON ROUGE    FOG       54  53  97 E3        29.88S VSB 1/2
BOOTHVILLE     CLOUDY    59  59 100 E7        29.87F FOG
BELLE CHASSE   CLOUDY    59  57  93 E7        29.87F FOG
BOGALUSA*      FOG       56  53  89 CALM      29.90F VSB 1
GALLIANO*      DRIZZLE   55  55  98 MISG      29.88F
NEW ROADS*     CLOUDY    53  52  97 CALM      29.89S FOG
GONZALES*      CLOUDY    56  56 100 CALM      29.87F FOG
HAMMOND*       NOT AVBL
HOUMA*         CLOUDY    57  57  98 NE3       29.87F FOG
PORT FOURCHON* CLOUDY    63  61  94 CALM      29.91S FOG

$$

LAZ041-044-053-054-221000-
SOUTHWEST LOUISIANA

CITY           SKY/WX    TMP DP  RH WIND       PRES   REMARKS
LAKE CHARLES   FOG       52  52 100 E3        29.87S VSB 1/4
LAFAYETTE      CLOUDY    52  50  93 N3        29.88F FOG
PATTERSON      CLOUDY    55  54  94 E5        29.87F
SALT POINT       N/A     58  54  86 CALM      29.86F
NEW IBERIA     FOG       53  52  96 E3        29.88F VSB 1
CHENAULT AIRPK FOG       51  51 100 E3        29.87F VSB 1/2

$$

LAZ027-028-221000-
CENTRAL LOUISIANA

CITY           SKY/WX    TMP DP  RH WIND       PRES   REMARKS
FORT POLK      CLOUDY    50  50 100 SE10      29.83F FOG
ALEXANDRIA INT CLOUDY    50  49  96 S3        29.85F FOG
ALEXANDRIA     CLOUDY    49  49 100 CALM      29.87F

$$

LAZ001-002-221000-
NORTHWEST LOUISIANA

CITY           SKY/WX    TMP DP  RH WIND       PRES   REMARKS
SHREVEPORT     CLOUDY    49  48  97 S10       29.79F
BARKSDALE AFB  NOT AVBL
DTN SHREVEPORT CLOUDY    49  46  90 SE14      29.79F

$$

LAZ014-016-221000-
NORTHEAST LOUISIANA

CITY           SKY/WX    TMP DP  RH WIND       PRES   REMARKS
MONROE         CLOUDY    48  48 100 S5        29.87F FOG
TALLULAH       CLOUDY    52  49  89 SE9       29.89F

$$




USA.gov is the U.S. government's official web portal to all federal, state and local government web resources and services.